| time (UTC) | temp F | wind direction | speed MPH | gust MPH | rain 1hr in | rain 24hr in | rain mn in | humidity % | barometer mb |
| 20260503041556 | 44 | 301 | 0.0 | 0.0 | 0.00 | 0.11 | 0.00 | 93 | 1008.5 |
| 20260503040032 | 44 | 53 | 0.0 | 0.0 | 0.00 | 0.11 | 0.11 | 93 | 1008.5 |
| 20260503034507 | 44 | 77 | 0.0 | 0.0 | 0.00 | 0.11 | 0.11 | 93 | 1008.4 |
| 20260503033043 | 44 | 96 | 0.0 | 0.0 | 0.01 | 0.11 | 0.11 | 92 | 1008.8 |
| 20260503031533 | 44 | 96 | 0.0 | 4.0 | 0.01 | 0.11 | 0.11 | 92 | 1008.9 |
| 20260503030007 | 44 | 331 | 0.0 | 2.0 | 0.01 | 0.11 | 0.11 | 92 | 1009.2 |
| 20260503024544 | 45 | 5 | 0.0 | 1.0 | 0.01 | 0.11 | 0.11 | 92 | 1009.2 |
| 20260503023020 | 45 | 90 | 0.0 | 3.0 | 0.00 | 0.10 | 0.10 | 92 | 1009.5 |
| 20260503021601 | 45 | 26 | 0.0 | 2.0 | 0.00 | 0.10 | 0.10 | 92 | 1009.4 |
| 20260503020033 | 45 | 47 | 0.0 | 3.0 | 0.00 | 0.10 | 0.10 | 92 | 1009.4 |
| 20260503014517 | 45 | 5 | 0.0 | 2.0 | 0.00 | 0.10 | 0.10 | 92 | 1009.6 |
| 20260503013100 | 45 | 36 | 0.0 | 1.0 | 0.00 | 0.10 | 0.10 | 91 | 1009.7 |
| 20260503011551 | 45 | 10 | 0.0 | 0.0 | 0.02 | 0.10 | 0.10 | 91 | 1009.6 |
| 20260503010037 | 46 | 21 | 0.0 | 0.0 | 0.03 | 0.10 | 0.10 | 90 | 1009.7 |
| 20260503004513 | 46 | 78 | 0.0 | 2.0 | 0.03 | 0.10 | 0.10 | 89 | 1009.6 |
| 20260503003049 | 46 | 107 | 0.0 | 0.0 | 0.03 | 0.10 | 0.10 | 89 | 1009.8 |
| 20260503001523 | 46 | 107 | 0.0 | 0.0 | 0.01 | 0.08 | 0.08 | 87 | 1009.6 |
| 20260503000014 | 47 | 107 | 0.0 | 1.0 | 0.00 | 0.07 | 0.07 | 86 | 1009.4 |
| 20260502234600 | 47 | 105 | 0.0 | 2.0 | 0.00 | 0.07 | 0.07 | 85 | 1009.2 |
| 20260502233037 | 47 | 90 | 0.0 | 2.0 | 0.00 | 0.07 | 0.07 | 85 | 1009.2 |
| 20260502231533 | 48 | 86 | 0.0 | 3.0 | 0.00 | 0.07 | 0.07 | 85 | 1009.3 |
| 20260502230006 | 48 | 131 | 0.0 | 2.0 | 0.00 | 0.07 | 0.07 | 86 | 1009.2 |
| 20260502224547 | 48 | 311 | 0.0 | 1.0 | 0.00 | 0.07 | 0.07 | 87 | 1009.2 |
| 20260502223028 | 48 | 9 | 0.0 | 0.0 | 0.00 | 0.07 | 0.07 | 86 | 1009.1 |
| 20260502221623 | 48 | 343 | 0.0 | 2.0 | 0.00 | 0.07 | 0.07 | 85 | 1009.2 |
| 20260502220056 | 49 | 340 | 0.0 | 2.0 | 0.00 | 0.07 | 0.07 | 83 | 1009.3 |
| 20260502214523 | 49 | 120 | 0.0 | 3.0 | 0.00 | 0.07 | 0.07 | 81 | 1009.3 |
| 20260502213101 | 49 | 296 | 0.0 | 1.0 | 0.00 | 0.07 | 0.07 | 80 | 1009.3 |
| 20260502211539 | 49 | 301 | 0.0 | 1.0 | 0.00 | 0.07 | 0.07 | 79 | 1009.6 |
| 20260502210014 | 49 | 259 | 0.0 | 0.0 | 0.00 | 0.07 | 0.07 | 79 | 1009.6 |
| 20260502204552 | 49 | 167 | 0.0 | 1.0 | 0.00 | 0.07 | 0.07 | 79 | 1009.2 |
| 20260502203030 | 49 | 161 | 0.0 | 2.0 | 0.00 | 0.07 | 0.07 | 78 | 1009.2 |
| 20260502201517 | 49 | 168 | 0.0 | 2.0 | 0.00 | 0.07 | 0.07 | 79 | 1009.3 |
| 20260502200121 | 49 | 169 | 0.0 | 3.0 | 0.00 | 0.07 | 0.07 | 78 | 1009.4 |
| 20260502194538 | 50 | 180 | 0.0 | 4.0 | 0.00 | 0.07 | 0.07 | 77 | 1009.6 |
| 20260502193009 | 50 | 199 | 0.0 | 3.0 | 0.00 | 0.07 | 0.07 | 80 | 1009.5 |
| 20260502191556 | 50 | 233 | 1.0 | 5.0 | 0.00 | 0.07 | 0.07 | 79 | 1009.7 |
| 20260502190031 | 50 | 177 | 0.0 | 4.0 | 0.00 | 0.07 | 0.07 | 79 | 1009.8 |
| 20260502184546 | 51 | 192 | 0.0 | 5.0 | 0.00 | 0.07 | 0.07 | 80 | 1010.0 |
| 20260502183034 | 50 | 134 | 1.0 | 5.0 | 0.00 | 0.07 | 0.07 | 85 | 1010.1 |
| 20260502181511 | 49 | 242 | 1.0 | 8.0 | 0.00 | 0.07 | 0.07 | 84 | 1010.2 |
| 20260502163047 | 48 | 198 | 0.0 | 2.0 | 0.00 | 0.07 | 0.07 | 88 | 1010.3 |
| 20260502161512 | 47 | 214 | 0.0 | 3.0 | 0.00 | 0.07 | 0.07 | 87 | 1010.4 |
| 20260502151559 | 48 | 150 | 0.0 | 4.0 | 0.01 | 0.07 | 0.07 | 88 | 1010.7 |
| 20260502123042 | 44 | 53 | 0.0 | 6.0 | 0.02 | 0.02 | 0.02 | 84 | 1011.2 |
| 20260502121519 | 44 | 100 | 0.0 | 7.0 | 0.02 | 0.02 | 0.02 | 84 | 1011.1 |
| 20260502114543 | 45 | 82 | 3.0 | 9.0 | 0.01 | 0.01 | 0.01 | 81 | 1011.8 |
| 20260502113035 | 45 | 54 | 0.0 | 2.0 | 0.00 | 0.00 | 0.00 | 78 | 1012.0 |
| 20260502111505 | 44 | 104 | 0.0 | 3.0 | 0.00 | 0.00 | 0.00 | 76 | 1011.8 |
| 20260502110051 | 44 | 88 | 0.0 | 1.0 | 0.00 | 0.00 | 0.00 | 78 | 1011.5 |
| 20260502104518 | 43 | 74 | 0.0 | 1.0 | 0.00 | 0.00 | 0.00 | 78 | 1011.4 |
| 20260502103101 | 43 | 101 | 0.0 | 0.0 | 0.00 | 0.00 | 0.00 | 78 | 1011.3 |
| 20260502101527 | 42 | 101 | 0.0 | 0.0 | 0.00 | 0.00 | 0.00 | 78 | 1011.0 |
| 20260502091510 | 40 | 103 | 0.0 | 2.0 | 0.00 | 0.00 | 0.00 | 77 | 1010.3 |
| 20260502090112 | 39 | 93 | 0.0 | 2.0 | 0.00 | 0.00 | 0.00 | 77 | 1010.6 |
| 20260502071527 | 38 | 331 | 0.0 | 0.0 | 0.00 | 0.00 | 0.00 | 79 | 1011.2 |
| 20260502070030 | 38 | 331 | 0.0 | 0.0 | 0.00 | 0.00 | 0.00 | 80 | 1011.2 |
| 20260502064604 | 38 | 331 | 0.0 | 0.0 | 0.00 | 0.00 | 0.00 | 80 | 1011.0 |
| 20260502063036 | 37 | 331 | 0.0 | 0.0 | 0.00 | 0.00 | 0.00 | 81 | 1010.8 |
| 20260502061501 | 37 | 331 | 0.0 | 0.0 | 0.00 | 0.00 | 0.00 | 81 | 1010.6 |
| 20260502060041 | 36 | 331 | 0.0 | 0.0 | 0.00 | 0.00 | 0.00 | 81 | 1010.6 |
| 20260502054529 | 36 | 331 | 0.0 | 0.0 | 0.00 | 0.00 | 0.00 | 81 | 1010.5 |
| 20260502053057 | 36 | 331 | 0.0 | 0.0 | 0.00 | 0.00 | 0.00 | 80 | 1010.4 |
| 20260502051533 | 36 | 331 | 0.0 | 0.0 | 0.00 | 0.00 | 0.00 | 79 | 1010.5 |
| 20260502050033 | 36 | 331 | 0.0 | 0.0 | 0.00 | 0.00 | 0.00 | 78 | 1010.5 |
| 20260502044557 | 37 | 331 | 0.0 | 0.0 | 0.00 | 0.00 | 0.00 | 77 | 1010.4 |
| 20260502043027 | 37 | 331 | 0.0 | 0.0 | 0.00 | 0.00 | 0.00 | 75 | 1010.4 |